Powrót do katalogu

CZ-6A DEB

AktywnyPO
NORAD 61163·DEBRIS·🇨🇳 China

Wystrzelony Aug 6, 2024 z Taiyuan Satellite Launch Center

Loading…

Następne Przeloty (najbliższe 24 godziny)

TLE

ŚwieżeSource: Space-Track

Epoka: Sep 13, 2026, 09:21 UTC

1 61163U 24140RH  26256.38985221  .00101448  00000-0  18571-2 0  9999
2 61163  88.6801 219.4345 0069080  66.7154 294.1356 15.46326371113373

Śledź CZ-6A DEB w czasie rzeczywistym z AllMySat

Download on the App Store